Inquirer Daily News

Weather

Get conditions and forecasts for any City, State, ZIP code or Country:  
Northeast Philadelphia, PA
on Thursday, December 6, 2012

Thursday
Previous Day Next Day
Daily Summary
 ActualAverage (KTTN)Record (KTTN)
Temperature
Mean Temperature °F 38°F  
Max Temperature 41°F 46°F 72°F (2001)
Min Temperature 27°F 31°F 12°F (1926)
Degree Days
Heating Degree Days 31 27  
Month to date heating degree days 154  
Since 1 July heating degree days 1130  
Cooling Degree Days 0 0  
Month to date cooling degree days 0  
Year to date cooling degree days 965  
Moisture
Dew Point 19°F   
Average Humidity 55    
Maximum Humidity 78    
Minimum Humidity 40    
Precipitation
Precipitation 0.00 in 0.13 in 1.30 in (1996)
Month to date precipitation 0.84  
Year to date precipitation 43.58  
Wind
Wind Speed 5 mph   
Max Wind Speed 12 mph   
Max Gust Speed mph   
Visibility 10 miles   
Events     

Key: T is trace of precipitation, MM is missing value
Source: NWS Daily Summary
Time(EST)TemperatureDew PointHumidity Pressure Visibility Wind DirectionWind SpeedGust SpeedPrecipitationEvents Conditions
12:54 AM 33.1°F 17.1°F 52% 30.31 in 10.0 miles North 11.5 mph - N/A   Clear
1:54 AM 30.9°F 17.1°F 57% 30.32 in 10.0 miles NNW 6.9 mph - N/A   Clear
2:54 AM 30.9°F 17.1°F 57% 30.33 in 10.0 miles WNW 5.8 mph - N/A   Clear
3:54 AM 30.9°F 18.0°F 59% 30.32 in 10.0 miles NW 5.8 mph - N/A   Clear
4:54 AM 30.0°F 18.0°F 61% 30.33 in 10.0 miles NW 5.8 mph - N/A   Clear
5:54 AM 28.0°F 18.0°F 66% 30.34 in 10.0 miles North 5.8 mph - N/A   Clear
6:54 AM 27.0°F 18.0°F 69% 30.36 in 10.0 miles North 5.8 mph - N/A   Clear
7:54 AM 30.0°F 19.9°F 66% 30.39 in 10.0 miles Calm Calm - N/A   Clear
8:54 AM 33.1°F 19.0°F 56% 30.39 in 10.0 miles NNE 9.2 mph - N/A   Clear
9:54 AM 35.1°F 18.0°F 50% 30.41 in 10.0 miles NNE 6.9 mph - N/A   Clear
10:54 AM 36.0°F 18.0°F 48% 30.38 in 10.0 miles East 5.8 mph - N/A   Clear
11:54 AM 37.9°F 17.1°F 43% 30.36 in 10.0 miles Calm Calm - N/A   Clear
12:54 PM 39.9°F 18.0°F 41% 30.34 in 10.0 miles Calm Calm - N/A   Clear
1:54 PM 41.0°F 18.0°F 40% 30.32 in 10.0 miles NE 3.5 mph - N/A   Clear
2:54 PM 41.0°F 18.0°F 40% 30.30 in 10.0 miles Calm Calm - N/A   Clear
3:54 PM 39.9°F 17.1°F 40% 30.32 in 10.0 miles Calm Calm - N/A   Clear
4:54 PM 37.9°F 18.0°F 45% 30.31 in 10.0 miles Calm Calm - N/A   Clear
5:54 PM 36.0°F 19.9°F 52% 30.31 in 10.0 miles Calm Calm - N/A   Clear
6:54 PM 35.1°F 19.0°F 52% 30.31 in 10.0 miles Calm Calm - N/A   Clear
7:54 PM 34.0°F 19.9°F 56% 30.32 in 10.0 miles Calm Calm - N/A   Clear
8:54 PM 34.0°F 21.0°F 59% 30.32 in 10.0 miles SSE 3.5 mph - N/A   Clear
9:54 PM 30.0°F 21.0°F 69% 30.32 in 10.0 miles Calm Calm - N/A   Clear
10:54 PM 30.0°F 21.9°F 72% 30.32 in 10.0 miles Calm Calm - N/A   Clear
11:54 PM 28.0°F 21.9°F 78% 30.31 in 10.0 miles Calm Calm - N/A   Clear
Astronomy
Sunrise:07:08 AM (EST) Moon Rise:No Moon Rise/
Sunset:04:34 PM (EST) Moon Set:11:59 AM (EST)12/6
Moon Phase
Dec. 06 Dec. 13 Dec. 20 Dec. 28 Jan. 04

Copyright © 2014 The Weather Underground, Inc.